• In Hungary
  • List of Countries
  • For 7 days
  • Water Temperature
  • Satellite Maps
  • Weather Map
  • News
  • Weather Widgets
  • user-avatar
    Login

    Hourly Weather Barbovo

    Today, 21 January, Sunday

    Time Temperature Precipitation Wind Pressure Humidity
    00:00 -1°C° 0.5 mm 2 mps 746 mmHg 100%
    01:00 -1°C° 0.7 mm 2 mps 746 mmHg 100%
    02:00 -1°C° 0 mm 2 mps 746 mmHg 100%
    03:00 -1°C° 0 mm 3 mps 745 mmHg 100%
    04:00 -1°C° 0 mm 3 mps 745 mmHg 100%
    05:00 -1°C° 0 mm 2 mps 745 mmHg 100%
    06:00 -1°C° 0 mm 3 mps 745 mmHg 98%
    07:00 -2°C° 0 mm 4 mps 745 mmHg 96%
    08:00 -2°C° 0 mm 4 mps 744 mmHg 95%
    09:00 -2°C° 0 mm 5 mps 744 mmHg 93%
    10:00 -3°C° 0 mm 6 mps 744 mmHg 89%
    11:00 -2°C° 0 mm 6 mps 743 mmHg 86%
    12:00 -1°C° 0 mm 6 mps 743 mmHg 83%
    13:00 +1°C° 0 mm 6 mps 742 mmHg 79%
    14:00 +1°C° 0 mm 4 mps 741 mmHg 82%
    15:00 +2°C° 0.1 mm 2 mps 741 mmHg 92%
    16:00 0°C° 1 mm 3 mps 741 mmHg 100%
    17:00 -1°C° 1.1 mm 4 mps 741 mmHg 99%
    18:00 -1°C° 0.8 mm 5 mps 741 mmHg 98%
    19:00 -1°C° 1 mm 5 mps 740 mmHg 98%
    20:00 -1°C° 0.6 mm 5 mps 740 mmHg 97%
    21:00 -1°C° 0.3 mm 5 mps 740 mmHg 98%
    22:00 -1°C° 0.6 mm 4 mps 740 mmHg 99%
    23:00 0°C° 0.5 mm 3 mps 741 mmHg 99%

    Tomorrow, 22 January, Monday

    Time Temperature Precipitation Wind Pressure Humidity
    00:00 0°C° 0.5 mm 3 mps 741 mmHg 99%
    01:00 0°C° 0.1 mm 3 mps 741 mmHg 92%
    02:00 -1°C° 0 mm 4 mps 742 mmHg 88%
    03:00 -2°C° 0 mm 5 mps 742 mmHg 85%
    04:00 -2°C° 0 mm 4 mps 742 mmHg 84%
    05:00 -2°C° 0 mm 4 mps 742 mmHg 83%
    06:00 -4°C° 0 mm 5 mps 742 mmHg 82%
    07:00 -4°C° 0 mm 5 mps 743 mmHg 82%
    08:00 -3°C° 0 mm 4 mps 744 mmHg 84%
    09:00 -2°C° 0 mm 4 mps 744 mmHg 83%
    10:00 -1°C° 0 mm 4 mps 745 mmHg 81%
    11:00 +1°C° 0 mm 3 mps 745 mmHg 80%
    12:00 +1°C° 0 mm 3 mps 746 mmHg 78%
    13:00 +2°C° 0 mm 3 mps 746 mmHg 77%
    14:00 +2°C° 0 mm 3 mps 746 mmHg 76%
    15:00 +2°C° 0 mm 3 mps 746 mmHg 77%
    16:00 +2°C° 0 mm 3 mps 747 mmHg 79%
    17:00 -1°C° 0 mm 4 mps 747 mmHg 83%
    18:00 -2°C° 0 mm 4 mps 748 mmHg 83%
    19:00 -1°C° 0 mm 3 mps 748 mmHg 82%
    20:00 -2°C° 0 mm 3 mps 749 mmHg 82%
    21:00 -2°C° 0 mm 3 mps 750 mmHg 82%
    22:00 -2°C° 0 mm 2 mps 750 mmHg 82%
    23:00 -2°C° 0 mm 2 mps 751 mmHg 82%

    Day after tomorrow, 23 January, Tuesday

    Time Temperature Precipitation Wind Pressure Humidity
    00:00 -2°C° 0 mm 2 mps 752 mmHg 82%
    01:00 0°C° 0 mm 1 mps 752 mmHg 78%
    02:00 0°C° 0 mm 1 mps 752 mmHg 78%
    03:00 0°C° 0 mm 1 mps 753 mmHg 82%
    04:00 0°C° 0 mm 1 mps 753 mmHg 83%
    05:00 0°C° 0 mm 1 mps 753 mmHg 79%
    06:00 0°C° 0 mm 1 mps 754 mmHg 77%
    07:00 0°C° 0 mm 1 mps 755 mmHg 79%
    08:00 0°C° 0 mm 1 mps 756 mmHg 84%
    09:00 0°C° 0 mm 1 mps 756 mmHg 87%
    10:00 -1°C° 0 mm 0 mps 757 mmHg 87%
    11:00 0°C° 0 mm 0 mps 757 mmHg 79%
    12:00 +1°C° 0 mm 0 mps 758 mmHg 77%
    13:00 +2°C° 0 mm 0 mps 758 mmHg 73%
    14:00 +3°C° 0 mm 1 mps 758 mmHg 71%
    15:00 +4°C° 0 mm 1 mps 758 mmHg 71%
    16:00 +3°C° 0 mm 1 mps 759 mmHg 74%
    17:00 +3°C° 0 mm 1 mps 759 mmHg 86%
    18:00 +2°C° 0 mm 1 mps 760 mmHg 83%
    19:00 -1°C° 0 mm 2 mps 760 mmHg 84%
    20:00 -2°C° 0 mm 2 mps 761 mmHg 86%
    21:00 -2°C° 0 mm 2 mps 761 mmHg 84%
    22:00 -2°C° 0 mm 2 mps 762 mmHg 85%
    23:00 -2°C° 0 mm 2 mps 762 mmHg 87%

    24 January, Wednesday

    Time Temperature Precipitation Wind Pressure Humidity
    00:00 -2°C° 0 mm 2 mps 763 mmHg 87%
    01:00 -2°C° 0 mm 2 mps 763 mmHg 86%
    02:00 -4°C° 0 mm 3 mps 764 mmHg 86%
    03:00 -4°C° 0 mm 3 mps 764 mmHg 83%
    04:00 -4°C° 0 mm 3 mps 764 mmHg 83%
    05:00 -4°C° 0 mm 3 mps 764 mmHg 81%
    06:00 -4°C° 0 mm 3 mps 764 mmHg 78%
    07:00 -4°C° 0 mm 3 mps 765 mmHg 76%
    08:00 -3°C° 0 mm 2 mps 765 mmHg 76%
    09:00 -3°C° 0 mm 2 mps 765 mmHg 77%
    10:00 -4°C° 0 mm 3 mps 765 mmHg 76%
    11:00 -4°C° 0 mm 3 mps 765 mmHg 77%
    12:00 -2°C° 0 mm 2 mps 765 mmHg 79%
    13:00 -2°C° 0 mm 2 mps 765 mmHg 77%
    14:00 -2°C° 0 mm 2 mps 765 mmHg 77%

    25 January, Thursday

    Time Temperature Precipitation Wind Pressure Humidity

    26 January, Friday

    Time Temperature Precipitation Wind Pressure Humidity
    Show more